Location: *
(31.2983°S, 151.4094°E)
Time: 11:55:50
(UTC+00:00)

Atlas Centaur 2 - Pass Details

Date: 25 August 2019
Orbit: 459 x 1311 km, 30.4° (Epoch: 22 September)

Event Time Altitude Azimuth Distance (km) Brightness Sun altitude
Exits shadow 19:19:00 16° 281° (WNW) 2,912 4.4 -13.5°
Maximum altitude 19:24:27 30° 330° (NNW) 2,171 4.1 -12.3°
Drops below altitude 10° 19:31:19 10° 26° (NNE) 3,200 5.6 -10.8°
Sets 19:34:29 0° 37° (NE) 4,073 6.4 -10.2°
